TimeCDT,TemperatureF,Dew PointF,Humidity,Sea Level PressureIn,VisibilityMPH,Wind Direction,Wind SpeedMPH,Gust SpeedMPH,PrecipitationIn,Events,Conditions,WindDirDegrees,DateUTC
12:15 AM,68.0,53.6,60,30.22,10.0,NNE,23.0,-,N/A,,Clear,20,2013-05-26 05:15:00
12:35 AM,66.2,53.6,64,30.21,10.0,NNE,24.2,29.9,N/A,,Clear,30,2013-05-26 05:35:00
12:55 AM,66.2,53.6,64,30.20,10.0,NE,25.3,-,N/A,,Clear,50,2013-05-26 05:55:00
1:15 AM,64.4,53.6,68,30.17,10.0,ENE,23.0,-,N/A,,Clear,60,2013-05-26 06:15:00
1:35 AM,66.2,53.6,64,30.17,10.0,ENE,13.8,-,N/A,,Clear,70,2013-05-26 06:35:00
1:55 AM,64.4,51.8,64,30.16,10.0,ENE,19.6,25.3,N/A,,Clear,70,2013-05-26 06:55:00
2:15 AM,64.4,50.0,59,30.16,10.0,ENE,21.9,-,N/A,,Clear,70,2013-05-26 07:15:00
2:35 AM,62.6,53.6,72,30.16,10.0,ENE,15.0,28.8,N/A,,Clear,70,2013-05-26 07:35:00
2:55 AM,62.6,53.6,72,30.15,10.0,East,19.6,23.0,N/A,,Clear,90,2013-05-26 07:55:00
3:15 AM,62.6,53.6,72,30.16,10.0,ENE,11.5,-,N/A,,Clear,70,2013-05-26 08:15:00
3:35 AM,62.6,53.6,72,30.16,10.0,ENE,5.8,-,N/A,,Clear,60,2013-05-26 08:35:00
3:55 AM,60.8,53.6,77,30.16,10.0,Calm,Calm,-,N/A,,Clear,0,2013-05-26 08:55:00
4:15 AM,59.0,53.6,82,30.16,10.0,NNW,5.8,-,N/A,,Clear,340,2013-05-26 09:15:00
4:35 AM,60.8,51.8,72,30.16,10.0,Calm,Calm,-,N/A,,Clear,0,2013-05-26 09:35:00
4:55 AM,59.0,51.8,77,30.16,10.0,West,6.9,-,N/A,,Clear,270,2013-05-26 09:55:00
5:15 AM,57.2,51.8,82,30.16,10.0,West,4.6,-,N/A,,Clear,280,2013-05-26 10:15:00
5:35 AM,57.2,51.8,82,30.15,10.0,West,5.8,-,N/A,,Clear,280,2013-05-26 10:35:00
5:55 AM,55.4,50.0,82,30.15,10.0,Calm,Calm,-,N/A,,Clear,0,2013-05-26 10:55:00
6:15 AM,53.6,48.2,82,30.15,10.0,NW,6.9,-,N/A,,Clear,310,2013-05-26 11:15:00
6:35 AM,55.4,51.8,88,30.16,10.0,West,4.6,-,N/A,,Clear,280,2013-05-26 11:35:00
6:55 AM,55.4,50.0,82,30.17,10.0,North,3.5,-,N/A,,Clear,350,2013-05-26 11:55:00
7:15 AM,53.6,48.2,82,30.18,10.0,Calm,Calm,-,N/A,,Clear,0,2013-05-26 12:15:00
7:35 AM,55.4,50.0,82,30.18,10.0,Calm,Calm,-,N/A,,Clear,0,2013-05-26 12:35:00
7:55 AM,57.2,51.8,82,30.19,10.0,Calm,Calm,-,N/A,,Clear,0,2013-05-26 12:55:00
8:15 AM,60.8,53.6,77,30.19,10.0,Calm,Calm,-,N/A,,Clear,0,2013-05-26 13:15:00
8:35 AM,64.4,53.6,68,30.19,10.0,Calm,Calm,-,N/A,,Clear,0,2013-05-26 13:35:00
8:55 AM,66.2,55.4,68,30.19,10.0,Calm,Calm,-,N/A,,Clear,0,2013-05-26 13:55:00
9:15 AM,66.2,57.2,73,30.20,10.0,SSW,4.6,-,N/A,,Clear,200,2013-05-26 14:15:00
9:35 AM,69.8,55.4,60,30.20,10.0,SSW,5.8,-,N/A,,Clear,210,2013-05-26 14:35:00
9:55 AM,71.6,55.4,57,30.20,10.0,SSW,9.2,-,N/A,,Clear,200,2013-05-26 14:55:00
10:15 AM,73.4,55.4,53,30.19,10.0,South,10.4,-,N/A,,Clear,180,2013-05-26 15:15:00
10:35 AM,73.4,55.4,53,30.19,10.0,South,8.1,-,N/A,,Clear,190,2013-05-26 15:35:00
10:55 AM,75.2,55.4,50,30.19,10.0,South,8.1,16.1,N/A,,Clear,190,2013-05-26 15:55:00
11:15 AM,77.0,55.4,47,30.19,10.0,SSW,11.5,-,N/A,,Clear,210,2013-05-26 16:15:00
11:35 AM,78.8,53.6,42,30.19,10.0,SW,10.4,16.1,N/A,,Clear,230,2013-05-26 16:35:00
11:55 AM,80.6,53.6,39,30.18,10.0,SSW,10.4,17.3,N/A,,Clear,210,2013-05-26 16:55:00
12:15 PM,82.4,53.6,37,30.17,10.0,WSW,9.2,18.4,N/A,,Clear,250,2013-05-26 17:15:00
12:35 PM,82.4,53.6,37,30.17,10.0,South,8.1,-,N/A,,Clear,170,2013-05-26 17:35:00
12:55 PM,84.2,51.8,33,30.17,10.0,WSW,10.4,-,N/A,,Clear,250,2013-05-26 17:55:00
1:15 PM,86.0,48.2,27,30.17,10.0,West,12.7,17.3,N/A,,Clear,260,2013-05-26 18:15:00
1:35 PM,87.8,46.4,24,30.16,10.0,South,8.1,-,N/A,,Clear,170,2013-05-26 18:35:00
1:55 PM,87.8,46.4,24,30.15,10.0,SSW,11.5,-,N/A,,Clear,210,2013-05-26 18:55:00
2:15 PM,87.8,46.4,24,30.14,10.0,SSW,8.1,-,N/A,,Clear,200,2013-05-26 19:15:00
2:35 PM,87.8,46.4,24,30.13,10.0,SSE,4.6,18.4,N/A,,Clear,160,2013-05-26 19:35:00
2:55 PM,87.8,46.4,24,30.13,10.0,SSE,6.9,18.4,N/A,,Clear,150,2013-05-26 19:55:00
3:15 PM,89.6,48.2,24,30.12,10.0,SSE,12.7,17.3,N/A,,Clear,160,2013-05-26 20:15:00
3:35 PM,87.8,48.2,25,30.11,10.0,South,16.1,21.9,N/A,,Clear,190,2013-05-26 20:35:00
3:55 PM,87.8,46.4,24,30.11,10.0,South,13.8,19.6,N/A,,Scattered Clouds,190,2013-05-26 20:55:00
4:15 PM,87.8,46.4,24,30.10,10.0,South,12.7,21.9,N/A,,Partly Cloudy,180,2013-05-26 21:15:00
4:35 PM,91.4,44.6,20,30.09,10.0,SE,10.4,18.4,N/A,,Clear,140,2013-05-26 21:35:00
4:55 PM,89.6,44.6,21,30.08,10.0,SSE,12.7,16.1,N/A,,Clear,150,2013-05-26 21:55:00
5:15 PM,89.6,42.8,20,30.08,10.0,South,9.2,-,N/A,,Clear,170,2013-05-26 22:15:00
5:35 PM,87.8,41.0,19,30.08,10.0,South,12.7,16.1,N/A,,Clear,190,2013-05-26 22:35:00
5:55 PM,89.6,42.8,20,30.07,10.0,SSW,12.7,17.3,N/A,,Clear,210,2013-05-26 22:55:00
6:15 PM,89.6,41.0,18,30.07,10.0,SSW,10.4,-,N/A,,Clear,210,2013-05-26 23:15:00
6:35 PM,89.6,41.0,18,30.07,10.0,South,5.8,-,N/A,,Partly Cloudy,190,2013-05-26 23:35:00
6:55 PM,89.6,39.2,17,30.06,10.0,SSW,8.1,-,N/A,,Partly Cloudy,200,2013-05-26 23:55:00
7:15 PM,87.8,39.2,18,30.05,10.0,South,8.1,-,N/A,,Clear,170,2013-05-27 00:15:00
7:35 PM,87.8,37.4,17,30.06,10.0,South,9.2,-,N/A,,Clear,170,2013-05-27 00:35:00
7:55 PM,87.8,37.4,17,30.05,10.0,South,11.5,18.4,N/A,,Clear,180,2013-05-27 00:55:00
8:15 PM,86.0,37.4,18,30.06,10.0,South,10.4,-,N/A,,Clear,190,2013-05-27 01:15:00
8:35 PM,84.2,37.4,19,30.06,10.0,South,10.4,-,N/A,,Clear,170,2013-05-27 01:35:00
8:55 PM,82.4,35.6,19,30.06,10.0,South,9.2,-,N/A,,Clear,170,2013-05-27 01:55:00
9:15 PM,80.6,35.6,20,30.07,10.0,South,8.1,-,N/A,,Clear,180,2013-05-27 02:15:00
9:35 PM,78.8,35.6,21,30.07,10.0,SSE,10.4,-,N/A,,Clear,150,2013-05-27 02:35:00
9:55 PM,77.0,42.8,29,30.08,10.0,SE,8.1,-,N/A,,Clear,140,2013-05-27 02:55:00
10:15 PM,77.0,48.2,36,30.08,10.0,ESE,15.0,-,N/A,,Clear,120,2013-05-27 03:15:00
10:35 PM,75.2,55.4,50,30.08,10.0,ESE,15.0,-,N/A,,Clear,120,2013-05-27 03:35:00
10:55 PM,75.2,57.2,53,30.09,10.0,ESE,17.3,-,N/A,,Clear,110,2013-05-27 03:55:00
11:15 PM,73.4,57.2,57,30.09,10.0,ESE,16.1,21.9,N/A,,Clear,120,2013-05-27 04:15:00
11:35 PM,73.4,57.2,57,30.10,10.0,ESE,15.0,23.0,N/A,,Clear,110,2013-05-27 04:35:00
11:55 PM,71.6,57.2,60,30.10,10.0,ESE,10.4,-,N/A,,Clear,110,2013-05-27 04:55:00